"Sample Date","Sample Time","Sensor Name","Sample Value","Units","Flow Rate","Sample Interval","Sample Volume","Laser Status","Number Channels","Micron Size 0","Counts/Channel 0","Micron Size 1","Counts/Channel 1","Micron Size 2","Counts/Channel 2","Micron Size 3","Counts/Channel 3","Micron Size 4","Counts/Channel 4","Micron Size 5","Counts/Channel 5","Micron Size 6","Counts/Channel 6","Micron Size 7","Counts/Channel 7","Micron Size 8","Counts/Channel 8","Micron Size 9","Counts/Channel 9","Micron Size 10","Counts/Channel 10","Micron Size 11","Counts/Channel 11","Micron Size 12","Counts/Channel 12","Micron Size 13","Counts/Channel 13","Micron Size 14","Counts/Channel 14","Micron Size 15","Counts/Channel 15","Micron Size 16","Counts/Channel 16","Micron Size 17","Counts/Channel 17","Micron Size 18","Counts/Channel 18","Micron Size 19","Counts/Channel 19","Micron Size 20","Counts/Channel 20","Micron Size 21","Counts/Channel 21","Micron Size 22","Counts/Channel 22","Micron Size 23","Counts/Channel 23","Micron Size 24","Counts/Channel 24","Micron Size 25","Counts/Channel 25","Micron Size 26","Counts/Channel 26","Micron Size 27","Counts/Channel 27","Micron Size 28","Counts/Channel 28","Micron Size 29","Counts/Channel 29","Micron Size 30","Counts/Channel 30","Micron Size 31","Counts/Channel 31"
"07/02/06","10:00:03","AMMA06",66540.000,"cc",28309.647,6.00,2830.965,1,6,0.100,33786.000,0.200,24990.000,0.300,5007.000,0.500,1622.000,1.000,1133.000,5.000,2.000
"07/02/06","10:00:09","AMMA06",66237.000,"cc",28349.961,6.00,2834.996,1,6,0.100,33608.000,0.200,24981.000,0.300,4913.000,0.500,1667.000,1.000,1068.000,5.000,0
"07/02/06","10:00:15","AMMA06",66000.000,"cc",28288.344,6.00,2828.835,1,6,0.100,33400.000,0.200,24853.000,0.300,5102.000,0.500,1596.000,1.000,1049.000,5.000,0
"07/02/06","10:00:21","AMMA06",66395.000,"cc",28309.813,6.00,2830.981,1,6,0.100,33750.000,0.200,24820.000,0.300,5122.000,0.500,1628.000,1.000,1075.000,5.000,0
"07/02/06","10:00:27","AMMA06",66961.000,"cc",28325.668,6.00,2832.567,1,6,0.100,33953.000,0.200,25083.000,0.300,5151.000,0.500,1663.000,1.000,1108.000,5.000,3.000
"07/02/06","10:00:33","AMMA06",66814.000,"cc",28347.943,6.00,2834.794,1,6,0.100,34110.000,0.200,24935.000,0.300,5032.000,0.500,1612.000,1.000,1123.000,5.000,2.000
"07/02/06","10:00:39","AMMA06",65983.000,"cc",28318.076,6.00,2831.808,1,6,0.100,33584.000,0.200,24690.000,0.300,5040.000,0.500,1535.000,1.000,1133.000,5.000,1.000
"07/02/06","10:00:45","AMMA06",66370.000,"cc",28267.035,6.00,2826.704,1,6,0.100,33861.000,0.200,24730.000,0.300,5042.000,0.500,1575.000,1.000,1159.000,5.000,3.000
"07/02/06","10:00:51","AMMA06",65923.000,"cc",28335.240,6.00,2833.524,1,6,0.100,33397.000,0.200,24723.000,0.300,5035.000,0.500,1611.000,1.000,1154.000,5.000,3.000
"07/02/06","10:00:57","AMMA06",66535.000,"cc",28290.631,6.00,2829.063,1,6,0.100,33970.000,0.200,24868.000,0.300,4971.000,0.500,1584.000,1.000,1139.000,5.000,3.000
"07/02/06","10:01:03","AMMA06",66297.000,"cc",28324.518,6.00,2832.452,1,6,0.100,33770.000,0.200,24832.000,0.300,4995.000,0.500,1613.000,1.000,1087.000,5.000,0
"07/02/06","10:01:09","AMMA06",66147.000,"cc",28346.512,6.00,2834.651,1,6,0.100,33799.000,0.200,24649.000,0.300,4968.000,0.500,1642.000,1.000,1088.000,5.000,1.000
"07/02/06","10:01:15","AMMA06",65768.000,"cc",28330.195,6.00,2833.020,1,6,0.100,33708.000,0.200,24379.000,0.300,5012.000,0.500,1570.000,1.000,1098.000,5.000,1.000
"07/02/06","10:01:21","AMMA06",66598.000,"cc",28265.838,6.00,2826.584,1,6,0.100,33970.000,0.200,24856.000,0.300,4988.000,0.500,1622.000,1.000,1160.000,5.000,2.000
"07/02/06","10:01:27","AMMA06",65729.000,"cc",28304.137,6.00,2830.414,1,6,0.100,33427.000,0.200,24680.000,0.300,4939.000,0.500,1611.000,1.000,1071.000,5.000,1.000
"07/02/06","10:01:33","AMMA06",66045.000,"cc",28319.428,6.00,2831.943,1,6,0.100,33536.000,0.200,24661.000,0.300,5001.000,0.500,1715.000,1.000,1130.000,5.000,2.000
"07/02/06","10:01:39","AMMA06",65904.000,"cc",28329.506,6.00,2832.951,1,6,0.100,33720.000,0.200,24754.000,0.300,4819.000,0.500,1535.000,1.000,1075.000,5.000,1.000
"07/02/06","10:01:45","AMMA06",65060.000,"cc",28343.096,6.00,2834.310,1,6,0.100,33301.000,0.200,24205.000,0.300,4883.000,0.500,1619.000,1.000,1052.000,5.000,0
"07/02/06","10:01:51","AMMA06",65658.000,"cc",28333.344,6.00,2833.335,1,6,0.100,33451.000,0.200,24560.000,0.300,4971.000,0.500,1555.000,1.000,1120.000,5.000,1.000
"07/02/06","10:01:57","AMMA06",65946.000,"cc",28283.002,6.00,2828.300,1,6,0.100,33620.000,0.200,24725.000,0.300,4871.000,0.500,1617.000,1.000,1112.000,5.000,1.000
"07/02/06","10:02:03","AMMA06",65842.000,"cc",28261.533,6.00,2826.154,1,6,0.100,33721.000,0.200,24458.000,0.300,4931.000,0.500,1609.000,1.000,1122.000,5.000,1.000
"07/02/06","10:02:09","AMMA06",65924.000,"cc",28333.963,6.00,2833.397,1,6,0.100,33821.000,0.200,24535.000,0.300,4860.000,0.500,1607.000,1.000,1100.000,5.000,1.000
"07/02/06","10:02:15","AMMA06",66392.000,"cc",28308.150,6.00,2830.815,1,6,0.100,34088.000,0.200,24809.000,0.300,4786.000,0.500,1597.000,1.000,1112.000,5.000,0
"07/02/06","10:02:21","AMMA06",65758.000,"cc",28387.920,6.00,2838.792,1,6,0.100,33819.000,0.200,24365.000,0.300,4889.000,0.500,1596.000,1.000,1089.000,5.000,0
"07/02/06","10:02:27","AMMA06",65580.000,"cc",28286.674,6.00,2828.668,1,6,0.100,33845.000,0.200,24237.000,0.300,4813.000,0.500,1589.000,1.000,1095.000,5.000,1.000
"07/02/06","10:02:33","AMMA06",65787.000,"cc",28343.834,6.00,2834.384,1,6,0.100,33852.000,0.200,24355.000,0.300,4849.000,0.500,1572.000,1.000,1159.000,5.000,0
"07/02/06","10:02:39","AMMA06",66132.000,"cc",28305.557,6.00,2830.556,1,6,0.100,34090.000,0.200,24478.000,0.300,4871.000,0.500,1627.000,1.000,1064.000,5.000,2.000
"07/02/06","10:02:45","AMMA06",65658.000,"cc",28296.754,6.00,2829.676,1,6,0.100,33854.000,0.200,24245.000,0.300,4827.000,0.500,1631.000,1.000,1101.000,5.000,0
"07/02/06","10:02:51","AMMA06",66025.000,"cc",28309.703,6.00,2830.971,1,6,0.100,34201.000,0.200,24180.000,0.300,4856.000,0.500,1619.000,1.000,1168.000,5.000,1.000
"07/02/06","10:02:57","AMMA06",66037.000,"cc",28310.621,6.00,2831.062,1,6,0.100,34277.000,0.200,24330.000,0.300,4775.000,0.500,1587.000,1.000,1065.000,5.000,3.000
"07/02/06","10:03:03","AMMA06",65956.000,"cc",28335.990,6.00,2833.599,1,6,0.100,34313.000,0.200,24214.000,0.300,4710.000,0.500,1625.000,1.000,1093.000,5.000,1.000
"07/02/06","10:03:09","AMMA06",66463.000,"cc",28319.762,6.00,2831.976,1,6,0.100,34583.000,0.200,24375.000,0.300,4763.000,0.500,1671.000,1.000,1071.000,5.000,0
"07/02/06","10:03:15","AMMA06",65618.000,"cc",28364.438,6.00,2836.444,1,6,0.100,34101.000,0.200,24039.000,0.300,4727.000,0.500,1654.000,1.000,1097.000,5.000,0
"07/02/06","10:03:21","AMMA06",66024.000,"cc",28299.022,6.00,2829.902,1,6,0.100,34035.000,0.200,24455.000,0.300,4758.000,0.500,1664.000,1.000,1110.000,5.000,2.000
"07/02/06","10:03:27","AMMA06",66046.000,"cc",28271.617,6.00,2827.162,1,6,0.100,34248.000,0.200,24253.000,0.300,4815.000,0.500,1649.000,1.000,1079.000,5.000,2.000
"07/02/06","10:03:33","AMMA06",65689.000,"cc",28286.373,6.00,2828.638,1,6,0.100,34356.000,0.200,23921.000,0.300,4696.000,0.500,1592.000,1.000,1124.000,5.000,0
"07/02/06","10:03:39","AMMA06",66120.000,"cc",28356.635,6.00,2835.664,1,6,0.100,34202.000,0.200,24556.000,0.300,4646.000,0.500,1663.000,1.000,1052.000,5.000,1.000
"07/02/06","10:03:45","AMMA06",65899.000,"cc",28288.055,6.00,2828.806,1,6,0.100,34050.000,0.200,24508.000,0.300,4653.000,0.500,1629.000,1.000,1058.000,5.000,1.000
"07/02/06","10:03:51","AMMA06",65946.000,"cc",28345.037,6.00,2834.504,1,6,0.100,34308.000,0.200,24190.000,0.300,4663.000,0.500,1643.000,1.000,1141.000,5.000,1.000
"07/02/06","10:03:57","AMMA06",65753.000,"cc",28337.711,6.00,2833.771,1,6,0.100,34395.000,0.200,24016.000,0.300,4620.000,0.500,1611.000,1.000,1110.000,5.000,1.000
"07/02/06","10:04:03","AMMA06",65823.000,"cc",28239.156,6.00,2823.916,1,6,0.100,34192.000,0.200,24128.000,0.300,4739.000,0.500,1683.000,1.000,1078.000,5.000,3.000
"07/02/06","10:04:09","AMMA06",65763.000,"cc",28331.119,6.00,2833.112,1,6,0.100,34214.000,0.200,24056.000,0.300,4699.000,0.500,1636.000,1.000,1157.000,5.000,1.000
"07/02/06","10:04:15","AMMA06",66196.000,"cc",28334.150,6.00,2833.415,1,6,0.100,34400.000,0.200,24249.000,0.300,4706.000,0.500,1697.000,1.000,1143.000,5.000,1.000
"07/02/06","10:04:21","AMMA06",65677.000,"cc",28362.633,6.00,2836.263,1,6,0.100,34168.000,0.200,23999.000,0.300,4735.000,0.500,1669.000,1.000,1106.000,5.000,0
"07/02/06","10:04:27","AMMA06",65686.000,"cc",28308.846,6.00,2830.885,1,6,0.100,34400.000,0.200,23899.000,0.300,4665.000,0.500,1610.000,1.000,1111.000,5.000,1.000
"07/02/06","10:04:33","AMMA06",65763.000,"cc",28348.639,6.00,2834.864,1,6,0.100,34035.000,0.200,24276.000,0.300,4761.000,0.500,1649.000,1.000,1041.000,5.000,1.000
"07/02/06","10:04:39","AMMA06",66008.000,"cc",28284.863,6.00,2828.487,1,6,0.100,34110.000,0.200,24353.000,0.300,4821.000,0.500,1614.000,1.000,1108.000,5.000,2.000
"07/02/06","10:04:45","AMMA06",66117.000,"cc",28258.666,6.00,2825.867,1,6,0.100,34132.000,0.200,24398.000,0.300,4856.000,0.500,1684.000,1.000,1046.000,5.000,1.000
"07/02/06","10:04:51","AMMA06",65886.000,"cc",28293.318,6.00,2829.332,1,6,0.100,34142.000,0.200,24393.000,0.300,4687.000,0.500,1614.000,1.000,1049.000,5.000,1.000
"07/02/06","10:04:57","AMMA06",65683.000,"cc",28333.082,6.00,2833.308,1,6,0.100,34060.000,0.200,24163.000,0.300,4718.000,0.500,1643.000,1.000,1095.000,5.000,4.000
"07/02/06","10:05:03","AMMA06",66045.000,"cc",28357.500,6.00,2835.750,1,6,0.100,34025.000,0.200,24493.000,0.300,4713.000,0.500,1660.000,1.000,1154.000,5.000,0
"07/02/06","10:05:09","AMMA06",65874.000,"cc",28302.500,6.00,2830.250,1,6,0.100,34009.000,0.200,24282.000,0.300,4852.000,0.500,1599.000,1.000,1132.000,5.000,0
"07/02/06","10:05:15","AMMA06",66104.000,"cc",28344.141,6.00,2834.414,1,6,0.100,33991.000,0.200,24578.000,0.300,4834.000,0.500,1580.000,1.000,1121.000,5.000,0
"07/02/06","10:05:21","AMMA06",66090.000,"cc",28331.619,6.00,2833.162,1,6,0.100,34112.000,0.200,24431.000,0.300,4865.000,0.500,1576.000,1.000,1104.000,5.000,2.000
"07/02/06","10:05:27","AMMA06",65752.000,"cc",28313.813,6.00,2831.381,1,6,0.100,34010.000,0.200,24328.000,0.300,4681.000,0.500,1672.000,1.000,1060.000,5.000,1.000
"07/02/06","10:05:33","AMMA06",66055.000,"cc",28359.537,6.00,2835.954,1,6,0.100,34278.000,0.200,24312.000,0.300,4734.000,0.500,1631.000,1.000,1099.000,5.000,1.000
"07/02/06","10:05:39","AMMA06",66040.000,"cc",28278.863,6.00,2827.887,1,6,0.100,34184.000,0.200,24209.000,0.300,4871.000,0.500,1629.000,1.000,1147.000,5.000,0
"07/02/06","10:05:45","AMMA06",65722.000,"cc",28318.404,6.00,2831.841,1,6,0.100,34038.000,0.200,24185.000,0.300,4815.000,0.500,1592.000,1.000,1091.000,5.000,1.000
"07/02/06","10:05:51","AMMA06",66431.000,"cc",28305.494,6.00,2830.550,1,6,0.100,34295.000,0.200,24579.000,0.300,4810.000,0.500,1625.000,1.000,1121.000,5.000,1.000
"07/02/06","10:05:57","AMMA06",65980.000,"cc",28263.580,6.00,2826.358,1,6,0.100,34043.000,0.200,24298.000,0.300,4852.000,0.500,1670.000,1.000,1117.000,5.000,0
"07/02/06","10:06:03","AMMA06",66440.000,"cc",28353.963,6.00,2835.397,1,6,0.100,34355.000,0.200,24487.000,0.300,4817.000,0.500,1694.000,1.000,1084.000,5.000,3.000
"07/02/06","10:06:09","AMMA06",66671.000,"cc",28379.766,6.00,2837.977,1,6,0.100,34268.000,0.200,24683.000,0.300,4933.000,0.500,1687.000,1.000,1099.000,5.000,1.000
"07/02/06","10:06:15","AMMA06",66595.000,"cc",28307.322,6.00,2830.732,1,6,0.100,34320.000,0.200,24485.000,0.300,5000.000,0.500,1617.000,1.000,1172.000,5.000,1.000
"07/02/06","10:06:21","AMMA06",66198.000,"cc",28268.398,6.00,2826.840,1,6,0.100,34217.000,0.200,24470.000,0.300,4772.000,0.500,1597.000,1.000,1141.000,5.000,1.000
"07/02/06","10:06:27","AMMA06",66153.000,"cc",28310.582,6.00,2831.058,1,6,0.100,34128.000,0.200,24577.000,0.300,4808.000,0.500,1578.000,1.000,1062.000,5.000,0
"07/02/06","10:06:33","AMMA06",65915.000,"cc",28327.588,6.00,2832.759,1,6,0.100,33982.000,0.200,24290.000,0.300,4894.000,0.500,1603.000,1.000,1146.000,5.000,0
"07/02/06","10:06:39","AMMA06",66138.000,"cc",28352.486,6.00,2835.249,1,6,0.100,33876.000,0.200,24500.000,0.300,5045.000,0.500,1640.000,1.000,1076.000,5.000,1.000
"07/02/06","10:06:45","AMMA06",66158.000,"cc",28330.262,6.00,2833.026,1,6,0.100,34222.000,0.200,24512.000,0.300,4731.000,0.500,1583.000,1.000,1106.000,5.000,4.000
"07/02/06","10:06:51","AMMA06",66325.000,"cc",28348.969,6.00,2834.897,1,6,0.100,34072.000,0.200,24547.000,0.300,4931.000,0.500,1658.000,1.000,1116.000,5.000,1.000
"07/02/06","10:06:57","AMMA06",66807.000,"cc",28269.061,6.00,2826.906,1,6,0.100,34333.000,0.200,24631.000,0.300,5080.000,0.500,1626.000,1.000,1136.000,5.000,1.000
"07/02/06","10:07:03","AMMA06",66174.000,"cc",28271.488,6.00,2827.149,1,6,0.100,33840.000,0.200,24652.000,0.300,4911.000,0.500,1655.000,1.000,1114.000,5.000,2.000
"07/02/06","10:07:09","AMMA06",66372.000,"cc",28312.674,6.00,2831.268,1,6,0.100,34221.000,0.200,24475.000,0.300,4913.000,0.500,1641.000,1.000,1120.000,5.000,2.000
"07/02/06","10:07:15","AMMA06",66990.000,"cc",28351.865,6.00,2835.187,1,6,0.100,34329.000,0.200,24867.000,0.300,5042.000,0.500,1653.000,1.000,1097.000,5.000,2.000
"07/02/06","10:07:21","AMMA06",66488.000,"cc",28329.190,6.00,2832.919,1,6,0.100,34207.000,0.200,24564.000,0.300,4928.000,0.500,1666.000,1.000,1122.000,5.000,1.000
"07/02/06","10:07:27","AMMA06",66168.000,"cc",28341.834,6.00,2834.184,1,6,0.100,34157.000,0.200,24387.000,0.300,4947.000,0.500,1622.000,1.000,1055.000,5.000,0
"07/02/06","10:07:33","AMMA06",66560.000,"cc",28328.959,6.00,2832.896,1,6,0.100,34257.000,0.200,24653.000,0.300,4897.000,0.500,1669.000,1.000,1082.000,5.000,2.000
"07/02/06","10:07:39","AMMA06",66227.000,"cc",28286.551,6.00,2828.655,1,6,0.100,34182.000,0.200,24457.000,0.300,4895.000,0.500,1567.000,1.000,1125.000,5.000,1.000
"07/02/06","10:07:45","AMMA06",66164.000,"cc",28286.410,6.00,2828.641,1,6,0.100,34218.000,0.200,24249.000,0.300,4941.000,0.500,1636.000,1.000,1115.000,5.000,5.000
"07/02/06","10:07:51","AMMA06",67023.000,"cc",28294.627,6.00,2829.463,1,6,0.100,34677.000,0.200,24801.000,0.300,4809.000,0.500,1657.000,1.000,1077.000,5.000,2.000
"07/02/06","10:07:57","AMMA06",66760.000,"cc",28331.938,6.00,2833.194,1,6,0.100,34746.000,0.200,24430.000,0.300,4836.000,0.500,1629.000,1.000,1118.000,5.000,1.000
"07/02/06","10:08:03","AMMA06",66922.000,"cc",28279.107,6.00,2827.911,1,6,0.100,34962.000,0.200,24500.000,0.300,4721.000,0.500,1601.000,1.000,1136.000,5.000,2.000
"07/02/06","10:08:09","AMMA06",66243.000,"cc",28348.588,6.00,2834.859,1,6,0.100,34197.000,0.200,24441.000,0.300,4843.000,0.500,1642.000,1.000,1118.000,5.000,2.000
"07/02/06","10:08:15","AMMA06",66509.000,"cc",28334.721,6.00,2833.472,1,6,0.100,34339.000,0.200,24651.000,0.300,4833.000,0.500,1573.000,1.000,1112.000,5.000,1.000
"07/02/06","10:08:21","AMMA06",66637.000,"cc",28281.674,6.00,2828.168,1,6,0.100,34444.000,0.200,24363.000,0.300,4993.000,0.500,1692.000,1.000,1145.000,5.000,0
"07/02/06","10:08:27","AMMA06",66672.000,"cc",28350.037,6.00,2835.004,1,6,0.100,34306.000,0.200,24920.000,0.300,4830.000,0.500,1514.000,1.000,1100.000,5.000,2.000
"07/02/06","10:08:33","AMMA06",66726.000,"cc",28237.916,6.00,2823.792,1,6,0.100,34500.000,0.200,24622.000,0.300,4887.000,0.500,1609.000,1.000,1108.000,5.000,0
"07/02/06","10:08:39","AMMA06",66363.000,"cc",28333.867,6.00,2833.387,1,6,0.100,34255.000,0.200,24463.000,0.300,4895.000,0.500,1615.000,1.000,1134.000,5.000,1.000
"07/02/06","10:08:45","AMMA06",66900.000,"cc",28349.666,6.00,2834.967,1,6,0.100,34805.000,0.200,24547.000,0.300,4698.000,0.500,1664.000,1.000,1185.000,5.000,1.000
"07/02/06","10:08:51","AMMA06",66843.000,"cc",28307.783,6.00,2830.779,1,6,0.100,34671.000,0.200,24488.000,0.300,4845.000,0.500,1670.000,1.000,1167.000,5.000,2.000
"07/02/06","10:08:57","AMMA06",65913.000,"cc",28346.160,6.00,2834.616,1,6,0.100,34377.000,0.200,24068.000,0.300,4664.000,0.500,1685.000,1.000,1119.000,5.000,0
"07/02/06","10:09:03","AMMA06",66617.000,"cc",28313.129,6.00,2831.313,1,6,0.100,34988.000,0.200,24125.000,0.300,4744.000,0.500,1609.000,1.000,1148.000,5.000,3.000
"07/02/06","10:09:09","AMMA06",66211.000,"cc",28284.705,6.00,2828.471,1,6,0.100,34819.000,0.200,23868.000,0.300,4743.000,0.500,1615.000,1.000,1166.000,5.000,0
"07/02/06","10:09:15","AMMA06",66931.000,"cc",28337.250,6.00,2833.725,1,6,0.100,35173.000,0.200,24237.000,0.300,4740.000,0.500,1622.000,1.000,1157.000,5.000,2.000
"07/02/06","10:09:21","AMMA06",66056.000,"cc",28334.391,6.00,2833.439,1,6,0.100,34583.000,0.200,24177.000,0.300,4562.000,0.500,1645.000,1.000,1088.000,5.000,1.000
"07/02/06","10:09:27","AMMA06",66523.000,"cc",28236.549,6.00,2823.655,1,6,0.100,34830.000,0.200,24237.000,0.300,4699.000,0.500,1695.000,1.000,1061.000,5.000,1.000
"07/02/06","10:09:33","AMMA06",66701.000,"cc",28369.449,6.00,2836.945,1,6,0.100,34830.000,0.200,24342.000,0.300,4792.000,0.500,1649.000,1.000,1086.000,5.000,2.000
"07/02/06","10:09:39","AMMA06",66705.000,"cc",28288.453,6.00,2828.846,1,6,0.100,34920.000,0.200,24268.000,0.300,4827.000,0.500,1575.000,1.000,1115.000,5.000,0
"07/02/06","10:09:45","AMMA06",66611.000,"cc",28356.490,6.00,2835.649,1,6,0.100,34827.000,0.200,24261.000,0.300,4706.000,0.500,1681.000,1.000,1136.000,5.000,0
"07/02/06","10:09:51","AMMA06",66208.000,"cc",28298.281,6.00,2829.828,1,6,0.100,34727.000,0.200,24006.000,0.300,4708.000,0.500,1570.000,1.000,1195.000,5.000,2.000
"07/02/06","10:09:57","AMMA06",66323.000,"cc",28290.272,6.00,2829.027,1,6,0.100,34776.000,0.200,24132.000,0.300,4692.000,0.500,1643.000,1.000,1077.000,5.000,3.000
"07/02/06","10:10:03","AMMA06",66392.000,"cc",28286.953,6.00,2828.696,1,6,0.100,34862.000,0.200,24077.000,0.300,4725.000,0.500,1660.000,1.000,1068.000,5.000,0
"07/02/06","10:10:09","AMMA06",66750.000,"cc",28298.090,6.00,2829.809,1,6,0.100,34865.000,0.200,24341.000,0.300,4800.000,0.500,1661.000,1.000,1081.000,5.000,2.000
"07/02/06","10:10:15","AMMA06",67028.000,"cc",28319.893,6.00,2831.990,1,6,0.100,35181.000,0.200,24499.000,0.300,4658.000,0.500,1605.000,1.000,1084.000,5.000,1.000
"07/02/06","10:10:21","AMMA06",66975.000,"cc",28361.297,6.00,2836.130,1,6,0.100,35222.000,0.200,24315.000,0.300,4667.000,0.500,1673.000,1.000,1097.000,5.000,1.000
"07/02/06","10:10:27","AMMA06",66337.000,"cc",28272.065,6.00,2827.207,1,6,0.100,34802.000,0.200,24083.000,0.300,4637.000,0.500,1666.000,1.000,1148.000,5.000,1.000
"07/02/06","10:10:33","AMMA06",67270.000,"cc",28304.324,6.00,2830.433,1,6,0.100,35170.000,0.200,24566.000,0.300,4685.000,0.500,1732.000,1.000,1117.000,5.000,0
"07/02/06","10:10:39","AMMA06",67176.000,"cc",28343.246,6.00,2834.325,1,6,0.100,35527.000,0.200,24200.000,0.300,4737.000,0.500,1609.000,1.000,1101.000,5.000,2.000
"07/02/06","10:10:45","AMMA06",67121.000,"cc",28318.936,6.00,2831.894,1,6,0.100,35362.000,0.200,24415.000,0.300,4659.000,0.500,1602.000,1.000,1076.000,5.000,7.000
"07/02/06","10:10:51","AMMA06",66848.000,"cc",28285.311,6.00,2828.531,1,6,0.100,35192.000,0.200,24258.000,0.300,4666.000,0.500,1661.000,1.000,1070.000,5.000,1.000
"07/02/06","10:10:57","AMMA06",66560.000,"cc",28315.709,6.00,2831.571,1,6,0.100,35017.000,0.200,24069.000,0.300,4777.000,0.500,1661.000,1.000,1035.000,5.000,1.000
"07/02/06","10:11:03","AMMA06",66303.000,"cc",28327.369,6.00,2832.737,1,6,0.100,34887.000,0.200,23960.000,0.300,4751.000,0.500,1547.000,1.000,1158.000,5.000,0
"07/02/06","10:11:09","AMMA06",66997.000,"cc",28371.250,6.00,2837.125,1,6,0.100,34996.000,0.200,24407.000,0.300,4833.000,0.500,1662.000,1.000,1098.000,5.000,1.000
"07/02/06","10:11:15","AMMA06",66554.000,"cc",28320.135,6.00,2832.014,1,6,0.100,34754.000,0.200,24379.000,0.300,4732.000,0.500,1585.000,1.000,1104.000,5.000,0
"07/02/06","10:11:21","AMMA06",66537.000,"cc",28321.346,6.00,2832.135,1,6,0.100,34742.000,0.200,24264.000,0.300,4780.000,0.500,1627.000,1.000,1123.000,5.000,1.000
"07/02/06","10:11:27","AMMA06",66805.000,"cc",28261.797,6.00,2826.180,1,6,0.100,34911.000,0.200,24301.000,0.300,4819.000,0.500,1649.000,1.000,1124.000,5.000,1.000
"07/02/06","10:11:33","AMMA06",66955.000,"cc",28321.143,6.00,2832.115,1,6,0.100,35039.000,0.200,24529.000,0.300,4713.000,0.500,1563.000,1.000,1110.000,5.000,1.000
"07/02/06","10:11:39","AMMA06",66754.000,"cc",28334.711,6.00,2833.471,1,6,0.100,34755.000,0.200,24469.000,0.300,4819.000,0.500,1637.000,1.000,1074.000,5.000,0
"07/02/06","10:11:45","AMMA06",67163.000,"cc",28289.451,6.00,2828.945,1,6,0.100,34897.000,0.200,24730.000,0.300,4753.000,0.500,1672.000,1.000,1110.000,5.000,1.000
"07/02/06","10:11:51","AMMA06",66796.000,"cc",28368.207,6.00,2836.821,1,6,0.100,34743.000,0.200,24428.000,0.300,4851.000,0.500,1674.000,1.000,1099.000,5.000,1.000
"07/02/06","10:11:57","AMMA06",66789.000,"cc",28289.316,6.00,2828.932,1,6,0.100,34469.000,0.200,24721.000,0.300,4860.000,0.500,1607.000,1.000,1129.000,5.000,3.000
"07/02/06","10:12:03","AMMA06",66897.000,"cc",28269.932,6.00,2826.993,1,6,0.100,34790.000,0.200,24557.000,0.300,4844.000,0.500,1615.000,1.000,1087.000,5.000,4.000
"07/02/06","10:12:09","AMMA06",66789.000,"cc",28335.795,6.00,2833.580,1,6,0.100,34722.000,0.200,24555.000,0.300,4773.000,0.500,1600.000,1.000,1138.000,5.000,1.000
"07/02/06","10:12:15","AMMA06",66686.000,"cc",28384.365,6.00,2838.437,1,6,0.100,34771.000,0.200,24218.000,0.300,4929.000,0.500,1641.000,1.000,1127.000,5.000,0
"07/02/06","10:12:21","AMMA06",66565.000,"cc",28325.047,6.00,2832.505,1,6,0.100,34609.000,0.200,24411.000,0.300,4857.000,0.500,1563.000,1.000,1124.000,5.000,1.000
"07/02/06","10:12:27","AMMA06",66168.000,"cc",28273.701,6.00,2827.370,1,6,0.100,34337.000,0.200,24366.000,0.300,4877.000,0.500,1552.000,1.000,1036.000,5.000,0
"07/02/06","10:12:33","AMMA06",66270.000,"cc",28321.148,6.00,2832.115,1,6,0.100,34201.000,0.200,24531.000,0.300,4890.000,0.500,1579.000,1.000,1068.000,5.000,1.000
"07/02/06","10:12:39","AMMA06",66362.000,"cc",28299.988,6.00,2829.999,1,6,0.100,34366.000,0.200,24543.000,0.300,4781.000,0.500,1584.000,1.000,1088.000,5.000,0
"07/02/06","10:12:45","AMMA06",66202.000,"cc",28347.723,6.00,2834.773,1,6,0.100,33951.000,0.200,24772.000,0.300,4778.000,0.500,1595.000,1.000,1105.000,5.000,1.000
"07/02/06","10:12:51","AMMA06",66237.000,"cc",28329.479,6.00,2832.948,1,6,0.100,34301.000,0.200,24313.000,0.300,4865.000,0.500,1621.000,1.000,1135.000,5.000,2.000
"07/02/06","10:12:57","AMMA06",66353.000,"cc",28334.463,6.00,2833.447,1,6,0.100,34220.000,0.200,24540.000,0.300,4865.000,0.500,1603.000,1.000,1121.000,5.000,4.000
"07/02/06","10:13:03","AMMA06",66568.000,"cc",28290.996,6.00,2829.100,1,6,0.100,34493.000,0.200,24493.000,0.300,4863.000,0.500,1604.000,1.000,1113.000,5.000,2.000
"07/02/06","10:13:09","AMMA06",66711.000,"cc",28310.326,6.00,2831.033,1,6,0.100,34457.000,0.200,24799.000,0.300,4757.000,0.500,1597.000,1.000,1100.000,5.000,1.000
"07/02/06","10:13:15","AMMA06",66395.000,"cc",28269.326,6.00,2826.933,1,6,0.100,34422.000,0.200,24395.000,0.300,4847.000,0.500,1611.000,1.000,1118.000,5.000,2.000
"07/02/06","10:13:21","AMMA06",66167.000,"cc",28289.705,6.00,2828.971,1,6,0.100,34139.000,0.200,24414.000,0.300,4918.000,0.500,1622.000,1.000,1074.000,5.000,0
"07/02/06","10:13:27","AMMA06",66006.000,"cc",28346.490,6.00,2834.649,1,6,0.100,34115.000,0.200,24448.000,0.300,4714.000,0.500,1621.000,1.000,1108.000,5.000,0
"07/02/06","10:13:33","AMMA06",66002.000,"cc",28322.520,6.00,2832.252,1,6,0.100,34555.000,0.200,23973.000,0.300,4756.000,0.500,1612.000,1.000,1104.000,5.000,2.000
"07/02/06","10:13:39","AMMA06",65866.000,"cc",28372.977,6.00,2837.298,1,6,0.100,34288.000,0.200,24241.000,0.300,4699.000,0.500,1570.000,1.000,1067.000,5.000,1.000
"07/02/06","10:13:45","AMMA06",66414.000,"cc",28322.398,6.00,2832.240,1,6,0.100,34586.000,0.200,24228.000,0.300,4807.000,0.500,1641.000,1.000,1151.000,5.000,1.000
"07/02/06","10:13:51","AMMA06",65945.000,"cc",28311.180,6.00,2831.118,1,6,0.100,34245.000,0.200,24011.000,0.300,4903.000,0.500,1618.000,1.000,1167.000,5.000,1.000